[[{"header":{"parameterUnit":"m.s-1","parameterCategory":1,"la1":30.2991,"la2":30.254,"lo1":-89.0895,"lo2":-89.0444,"dy":0.0017,"dx":0.0017,"nx":28,"ny":28,"refTime":"2024-02-02T03:00:00:Z","depth":0,"parameterNumber":2,"parameterNumberName":"U-component_of_WINDS"},"data":[0,0,0,0,0,0,0,0,0,0,0,0,0,0,0,0,0,0,0,0,0,0,0,0,0,0,0,0,0,0,0,0,0,0,0,0,0,0,0,0,0,0,0,0,0,0,0,0,0,0,0,0,0,0,0,0,0,0,0.03,0.03,0,0.0362,0.0363,0.0363,0.0405,0.0406,0.0406,0.0406,0.047,0.0471,0.0473,0,0,0,0,0,0,0,0,0,0,0,0,0,0.0216,0.0218,0.0299,0.03,0.0301,0.0362,0.0363,0.0363,0.0405,0.0406,0.0406,0.0406,0.0469,0.0471,0.0473,0,0,0,0,0,0,0,0,0,0,0,0,0,0.0263,0.0218,0.0299,0.0329,0.0333,0.0362,0.0363,0.0364,0.0405,0.0406,0.0406,0.0407,0.0469,0.0471,0.0473,0.0477,0,0,0.048,0.048,0,0,0,0,0,0,0,0,0.026,0.0266,0.0324,0.0327,0.0331,0.0376,0.0357,0.0402,0.0405,0.0378,0.0406,0.0407,0.0438,0.0443,0.0454,0.048,0.0483,0.048,0.0481,0.0482,0.0483,0,0,0,0,0,0,0,0.0257,0.0263,0.0324,0.0325,0.0329,0.0339,0.0347,0.0365,0.0405,0.038,0.0383,0.039,0.044,0.0452,0.0456,0.0484,0.048,0.0482,0.0483,0.0484,0.0516,0.0516,0,0,0,0,0,0,0.0249,0.026,0.0322,0.0326,0.0296,0.0341,0.0348,0.0361,0.0405,0.0412,0.039,0.0392,0.0448,0.0453,0.0458,0.0465,0.0482,0.0484,0.0485,0.0516,0.0516,0.0515,0,0,0,0,0,0,0.0247,0.0254,0.032,0.0294,0.0303,0.0341,0.0356,0.0362,0.0374,0.0412,0.0419,0.0394,0.0448,0.0455,0.0472,0.0468,0.0485,0.0487,0.0517,0.0516,0.0516,0.0479,0,0,0,0,0,0,0.0244,0.0253,0.0255,0.0294,0.0304,0.0333,0.0355,0.0363,0.0377,0.0381,0.0418,0.0424,0.0449,0.0469,0.0474,0.0471,0.0488,0.0517,0.0517,0.0516,0.0481,0.0478,0.0475,0,0,0,0,0,0.0241,0.0243,0.0255,0.0262,0.0308,0.0332,0.0338,0.0367,0.0377,0.0379,0.0403,0.0423,0.0467,0.047,0.0476,0.0474,0.0518,0.0517,0.0516,0.0483,0.0478,0.0475,0,0,0,0,0,0,0.0203,0.0248,0.0263,0.0277,0.03,0.0339,0.0343,0.0362,0.0383,0.0385,0.042,0.0428,0.0441,0.0459,0.0461,0.048,0.0495,0.0495,0.0467,0.0464,0.046,0.0455,0.049,0,0,0,0,0,0.0196,0.0212,0.0251,0.0259,0.0271,0.0305,0.0316,0.0336,0.0362,0.0372,0.0398,0.0422,0.0442,0.0454,0.0474,0.0484,0.0492,0.0486,0.0482,0.0479,0.0479,0.0485,0.0482,0.0512,0.0512,0.0512,0,0,0.0182,0.0209,0.0217,0.0252,0.0273,0.0289,0.0313,0.0329,0.034,0.0375,0.0392,0.0412,0.0441,0.0454,0.0462,0.047,0.0473,0.0478,0.0476,0.0477,0.0484,0.0481,0.0478,0.0512,0.0512,0.0512,0,0,0.0164,0.0186,0.0195,0.0215,0.0246,0.0269,0.0271,0.0307,0.0322,0.034,0.0366,0.038,0.0413,0.0433,0.0447,0.0435,0.0454,0.0441,0.0424,0.0429,0.0427,0.0425,0.042,0.0418,0.0441,0.0441,0.0441,0,0.0142,0.0167,0.0198,0.0212,0.0226,0.0258,0.0267,0.0285,0.0321,0.033,0.0339,0.0381,0.0403,0.0421,0.0418,0.0429,0.0432,0.0437,0.0425,0.0423,0.0422,0.0418,0.0416,0.0439,0.0439,0.0439,0.0439,0,0.0139,0.0155,0.0159,0.0193,0.0208,0.0219,0.0251,0.0263,0.0281,0.0303,0.032,0.0348,0.0373,0.0379,0.0398,0.04,0.0404,0.0418,0.0434,0.0417,0.0413,0.0412,0.0436,0.0437,0.0437,0.0438,0,0,0.0098,0.0148,0.0149,0.0164,0.0201,0.0214,0.0227,0.0252,0.0261,0.0284,0.0295,0.0322,0.0335,0.0352,0.0372,0.0377,0.0365,0.0391,0.0392,0.0385,0.0368,0.0357,0.0354,0.0378,0.0378,0.0378,0.0366,0,0.0085,0.011,0.0138,0.0153,0.0168,0.0198,0.0209,0.0232,0.0253,0.0268,0.0291,0.0309,0.0326,0.0336,0.0342,0.0365,0.0362,0.0367,0.0388,0.0389,0.0379,0.0353,0.0341,0.0328,0.0365,0.0364,0.0364,0,0.0074,0.0095,0.0112,0.0146,0.0153,0.0163,0.0188,0.0203,0.0229,0.0244,0.0261,0.0283,0.0298,0.0312,0.0332,0.0334,0.0344,0.0357,0.0357,0.036,0.0375,0.0354,0.0324,0.0322,0.0363,0.0363,0.0363,0,0.0041,0.0075,0.0089,0.0101,0.0142,0.0147,0.0164,0.0192,0.0205,0.0226,0.0235,0.0258,0.027,0.0288,0.0315,0.0323,0.0332,0.0348,0.0344,0.0343,0.0344,0.0343,0.0315,0.0351,0.0351,0.0351,0.0351,0,0.0024,0.0032,0.0075,0.0083,0.0093,0.0125,0.0134,0.0154,0.0178,0.019,0.0218,0.0229,0.0265,0.028,0.0302,0.0315,0.032,0.0332,0.0337,0.0329,0.0327,0.0336,0.0337,0.0351,0.0351,0.0351,0.0351,0,-0.0011,0.0018,0.0035,0.0072,0.0082,0.0087,0.0119,0.0128,0.015,0.0165,0.0171,0.0205,0.0224,0.0253,0.0281,0.0296,0.0304,0.0314,0.0295,0.0299,0.0292,0.0292,0.0267,0.0265,0.0304,0.0303,0.0303,0,-0.0024,-0.0017,0.002,0.0031,0.0047,0.0063,0.0077,0.0108,0.0121,0.0152,0.0157,0.0178,0.0197,0.0226,0.0253,0.0274,0.0284,0.0274,0.0288,0.0279,0.0283,0.0282,0.0283,0.0271,0.027,0.027,0.0269,0,-0.0052,-0.0038,-0.002,0.0004,0.0019,0.0038,0.006,0.0066,0.0102,0.0115,0.0135,0.0149,0.0178,0.0198,0.0223,0.0241,0.0261,0.0265,0.0265,0.0256,0.0245,0.025,0.0286,0.0265,0.0266,0.0266,0.0266,0.0266,-0.0077,-0.0069,-0.0042,-0.0022,-0.0003,0.0016,0.0026,0.0049,0.0066,0.0092,0.0109,0.0128,0.0154,0.019,0.0206,0.0221,0.0229,0.0229,0.0229,0.0228,0.0225,0.0243,0.0225,0.0225,0.0226,0.0226,0.0226,0,-0.0103,-0.0084,-0.0067,-0.0038,-0.0023,-0.0005,0.0019,0.003,0.0046,0.0069,0.0086,0.0109,0.0129,0.0157,0.0179,0.0186,0.0195,0.019,0.019,0.0193,0.0216,0.0214,0.0182,0.0182,0.0182,0.0182,0.0182,0.0182,-0.0116,-0.0102,-0.0085,-0.0062,-0.0043,-0.0024,-0.0012,0.0005,0.0023,0.0047,0.0064,0.0083,0.0107,0.0131,0.015,0.0158,0.0165,0.0156,0.0167,0.0188,0.0192,0.0196,0.0193,0.0158,0.0158,0.0143,0.0143,0.0142]},{"header":{"parameterUnit":"m.s-1","parameterCategory":1,"la1":30.2991,"la2":30.254,"lo1":-89.0895,"lo2":-89.0444,"dy":0.0017,"dx":0.0017,"nx":28,"ny":28,"refTime":"2024-02-02T03:00:00:Z","depth":0,"parameterNumber":3,"parameterNumberName":"V-component_of_WINDS"},"data":[0,0,0,0,0,0,0,0,0,0,0,0,0,0,0,0,0,0,0,0,0,0,0,0,0,0,0,0,0,0,0,0,0,0,0,0,0,0,0,0,0,0,0,0,0,0,0,0,0,0,0,0,0,0,0,0,0,0,0.7103,0.7102,0,0.6989,0.6988,0.6986,0.6961,0.6962,0.6963,0.6963,0.6842,0.6839,0.6835,0,0,0,0,0,0,0,0,0,0,0,0,0,0.7297,0.7294,0.7104,0.7102,0.7101,0.6989,0.6988,0.6986,0.6961,0.6962,0.6963,0.6964,0.6844,0.6839,0.6834,0,0,0,0,0,0,0,0,0,0,0,0,0,0.7201,0.7293,0.7104,0.7075,0.7071,0.6989,0.6987,0.6986,0.6961,0.6962,0.6963,0.6964,0.6845,0.6839,0.6834,0.6772,0,0,0.6815,0.6813,0,0,0,0,0,0,0,0,0.7206,0.7194,0.708,0.7077,0.7072,0.6991,0.7011,0.6914,0.696,0.7002,0.6963,0.6965,0.689,0.6881,0.6856,0.6766,0.6761,0.6815,0.6811,0.6808,0.6807,0,0,0,0,0,0,0,0.7213,0.7199,0.7058,0.7079,0.7074,0.7066,0.7054,0.6993,0.6941,0.6999,0.6997,0.6984,0.6888,0.6862,0.6853,0.6759,0.6815,0.681,0.6806,0.6803,0.6611,0.661,0,0,0,0,0,0,0.7225,0.7204,0.7062,0.7055,0.7144,0.7062,0.7048,0.7015,0.6941,0.6931,0.6983,0.6983,0.6872,0.686,0.6849,0.6771,0.6809,0.6803,0.6799,0.6613,0.6611,0.6609,0,0,0,0,0,0,0.723,0.7213,0.7066,0.7129,0.711,0.7057,0.7021,0.7013,0.6986,0.6929,0.6919,0.6966,0.6872,0.6858,0.6791,0.6767,0.68,0.6795,0.6615,0.6612,0.661,0.6616,0,0,0,0,0,0,0.7235,0.7215,0.7191,0.7129,0.7106,0.7011,0.7019,0.7009,0.6977,0.6976,0.6911,0.6901,0.6872,0.68,0.6785,0.6759,0.679,0.6617,0.6614,0.6611,0.6617,0.6614,0.6611,0,0,0,0,0,0.7242,0.7196,0.719,0.7173,0.7076,0.701,0.6997,0.6966,0.6975,0.695,0.6914,0.6903,0.6772,0.6794,0.6777,0.6748,0.6618,0.6614,0.6611,0.6619,0.6614,0.6611,0,0,0,0,0,0,0.7256,0.7188,0.718,0.7113,0.7068,0.7006,0.6974,0.6962,0.6913,0.6914,0.6876,0.6862,0.6798,0.6766,0.6792,0.6684,0.6695,0.6688,0.6707,0.6702,0.6699,0.6708,0.6785,0,0,0,0,0,0.7252,0.7205,0.7147,0.7093,0.7071,0.7027,0.6997,0.6977,0.6928,0.6908,0.6866,0.6818,0.6766,0.6733,0.6682,0.6613,0.6598,0.6585,0.6582,0.6579,0.6573,0.6534,0.6528,0.6598,0.6598,0.6598,0,0,0.7241,0.7198,0.717,0.7095,0.7057,0.7009,0.7011,0.6959,0.6922,0.69,0.6835,0.6803,0.6747,0.6679,0.6647,0.6651,0.6551,0.6575,0.6574,0.6569,0.653,0.6524,0.6518,0.6596,0.6596,0.6597,0,0,0.7197,0.716,0.7111,0.7074,0.7018,0.6989,0.6978,0.6918,0.6896,0.6831,0.6813,0.6768,0.6679,0.664,0.6608,0.6551,0.6539,0.6535,0.6517,0.648,0.6474,0.6469,0.6448,0.6441,0.6529,0.6529,0.6529,0,0.7191,0.7118,0.7087,0.7037,0.7003,0.6983,0.6933,0.6898,0.6827,0.6804,0.681,0.6699,0.6659,0.6582,0.6568,0.6544,0.6528,0.6542,0.6478,0.6472,0.6467,0.6446,0.6438,0.6529,0.6529,0.6529,0.6529,0,0.7113,0.7062,0.7029,0.6963,0.6927,0.6876,0.6837,0.6804,0.6787,0.6757,0.669,0.6643,0.6582,0.6562,0.6545,0.6482,0.6486,0.6486,0.6495,0.6461,0.644,0.6432,0.6529,0.6529,0.6529,0.6529,0,0,0.7073,0.6992,0.698,0.695,0.6887,0.6847,0.6795,0.6737,0.6709,0.6661,0.6616,0.6542,0.6541,0.6505,0.6483,0.6451,0.6407,0.6453,0.6451,0.6446,0.6334,0.6335,0.6326,0.64,0.6398,0.6397,0.6339,0,0.7021,0.6929,0.6901,0.6824,0.6776,0.6757,0.6712,0.6668,0.6639,0.6593,0.656,0.6508,0.6511,0.6489,0.6456,0.642,0.6384,0.6423,0.6356,0.6354,0.637,0.6316,0.6316,0.6263,0.6331,0.6329,0.6328,0,0.6947,0.69,0.6819,0.6762,0.6741,0.6701,0.6646,0.6603,0.6552,0.6533,0.6494,0.6475,0.642,0.6434,0.6357,0.6384,0.6355,0.6333,0.633,0.6322,0.6338,0.6305,0.6246,0.6238,0.6316,0.6317,0.6318,0,0.6926,0.6842,0.6782,0.6757,0.669,0.6662,0.6632,0.6583,0.655,0.6501,0.6479,0.6424,0.6393,0.6351,0.6317,0.6331,0.6242,0.6254,0.6224,0.6225,0.6205,0.6206,0.614,0.6188,0.6188,0.6188,0.6188,0,0.687,0.6821,0.6772,0.6735,0.6679,0.6647,0.6592,0.6561,0.6518,0.6474,0.6453,0.6412,0.6371,0.6324,0.6298,0.6237,0.6223,0.6206,0.6199,0.6207,0.6209,0.6186,0.6189,0.6186,0.6187,0.6187,0.6187,0,0.6836,0.6801,0.6735,0.6677,0.6661,0.6623,0.6573,0.6536,0.6506,0.6451,0.6436,0.6389,0.6333,0.6296,0.6224,0.6206,0.614,0.6135,0.6158,0.6154,0.6126,0.6129,0.6041,0.6028,0.6086,0.6086,0.6086,0,0.6802,0.6764,0.6703,0.6672,0.6643,0.6595,0.6561,0.6528,0.6493,0.6433,0.6403,0.6347,0.6299,0.6211,0.6169,0.6114,0.6106,0.608,0.6098,0.6107,0.6105,0.6107,0.6103,0.6077,0.6076,0.6076,0.6075,0,0.6745,0.673,0.6683,0.663,0.6591,0.6548,0.6504,0.648,0.6439,0.6401,0.6344,0.6308,0.6235,0.6178,0.612,0.6088,0.6074,0.607,0.606,0.6067,0.6082,0.6073,0.6149,0.6072,0.6072,0.6073,0.6073,0.6073,0.6709,0.6675,0.6626,0.6575,0.6539,0.6498,0.6461,0.6427,0.638,0.6319,0.6302,0.6243,0.6193,0.6113,0.608,0.6033,0.6035,0.6021,0.6017,0.6014,0.6013,0.6091,0.6022,0.6022,0.6022,0.6022,0.6022,0,0.6651,0.6619,0.6572,0.6512,0.6471,0.6464,0.6415,0.6381,0.633,0.6285,0.624,0.6174,0.612,0.6075,0.6018,0.5988,0.5981,0.5975,0.5976,0.5968,0.6015,0.6029,0.5982,0.5982,0.5982,0.5982,0.5982,0.5982,0.6616,0.6556,0.6536,0.6458,0.6426,0.6369,0.6342,0.6304,0.6269,0.6197,0.6152,0.6124,0.6079,0.6019,0.5968,0.5956,0.5935,0.5931,0.5917,0.5961,0.5965,0.597,0.5983,0.5927,0.5927,0.5875,0.5874,0.5874]}]]